<?xml version='1.0' encoding='UTF-8'?>
<gpx xmlns="http://www.topografix.com/GPX/1/1" creator="www.balnam.be" version="1.1" xmlns:xsi="http://www.w3.org/2001/XMLSchema-instance" xsi:schemaLocation="http://www.topografix.com/GPX/1/1 http://www.topografix.com/GPX/1/1/gpx.xsd">
<trk>
<name>hbtwv1</name>
<cmt>v</cmt>
<desc>Wez-Velvain Chemin n°1 </desc>
<link href="https://chemins.be/wezvelvain/chemin/1"/><trkseg>
<trkpt lat="50.523070" lon="3.375654"><time>2026-05-02T17:47:43Z</time></trkpt>
<trkpt lat="50.523463" lon="3.375753"><time>2026-05-02T17:57:43Z</time></trkpt>
<trkpt lat="50.525930" lon="3.376446"><time>2026-05-02T18:07:43Z</time></trkpt>
<trkpt lat="50.526898" lon="3.374783"><time>2026-05-02T18:17:43Z</time></trkpt>
<trkpt lat="50.527460" lon="3.373873"><time>2026-05-02T18:27:43Z</time></trkpt>
<trkpt lat="50.530550" lon="3.372700"><time>2026-05-02T18:37:43Z</time></trkpt>
<trkpt lat="50.531784" lon="3.372219"><time>2026-05-02T18:47:43Z</time></trkpt>
<trkpt lat="50.532085" lon="3.372206"><time>2026-05-02T18:57:43Z</time></trkpt>
<trkpt lat="50.533758" lon="3.373867"><time>2026-05-02T19:07:43Z</time></trkpt>
<trkpt lat="50.535234" lon="3.375661"><time>2026-05-02T19:17:43Z</time></trkpt>
</trkseg>
</trk>
<trk>
<name>hbtwv10</name>
<cmt>b</cmt>
<desc>Wez-Velvain Chemin n°10 </desc>
<link href="https://chemins.be/wezvelvain/chemin/10"/><trkseg>
<trkpt lat="50.543537" lon="3.371814"><time>2026-05-02T17:47:43Z</time></trkpt>
<trkpt lat="50.543022" lon="3.370706"><time>2026-05-02T17:57:43Z</time></trkpt>
</trkseg></trk>
<trk>
<name>hbtwv10</name>
<cmt>v</cmt>
<desc>Wez-Velvain Chemin n°10 </desc>
<link href="https://chemins.be/wezvelvain/chemin/10"/><trkseg>
<trkpt lat="50.543022" lon="3.370706"><time>2026-05-02T17:57:43Z</time></trkpt>
<trkpt lat="50.542635" lon="3.369891"><time>2026-05-02T18:07:43Z</time></trkpt>
<trkpt lat="50.542032" lon="3.369269"><time>2026-05-02T18:17:43Z</time></trkpt>
<trkpt lat="50.540232" lon="3.366908"><time>2026-05-02T18:27:43Z</time></trkpt>
<trkpt lat="50.539272" lon="3.365539"><time>2026-05-02T18:37:43Z</time></trkpt>
<trkpt lat="50.539002" lon="3.365037"><time>2026-05-02T18:47:43Z</time></trkpt>
</trkseg>
</trk>
<trk>
<name>hbtwv13</name>
<cmt>v</cmt>
<desc>Wez-Velvain Chemin n°13 </desc>
<link href="https://chemins.be/wezvelvain/chemin/13"/><trkseg>
<trkpt lat="50.552774" lon="3.375820"><time>2026-05-02T17:47:43Z</time></trkpt>
<trkpt lat="50.553134" lon="3.375279"><time>2026-05-02T17:57:43Z</time></trkpt>
<trkpt lat="50.553985" lon="3.375064"><time>2026-05-02T18:07:43Z</time></trkpt>
</trkseg></trk>
<trk>
<name>hbtwv13</name>
<cmt>d</cmt>
<desc>Wez-Velvain Chemin n°13 </desc>
<link href="https://chemins.be/wezvelvain/chemin/13"/><trkseg>
<trkpt lat="50.553985" lon="3.375064"><time>2026-05-02T18:07:43Z</time></trkpt>
<trkpt lat="50.554584" lon="3.375109"><time>2026-05-02T18:17:43Z</time></trkpt>
<trkpt lat="50.555034" lon="3.375573"><time>2026-05-02T18:27:43Z</time></trkpt>
<trkpt lat="50.555604" lon="3.375616"><time>2026-05-02T18:37:43Z</time></trkpt>
<trkpt lat="50.556946" lon="3.375511"><time>2026-05-02T18:47:43Z</time></trkpt>
</trkseg></trk>
<trk>
<name>hbtwv13</name>
<cmt>s</cmt>
<desc>Wez-Velvain Chemin n°13 </desc>
<link href="https://chemins.be/wezvelvain/chemin/13"/><trkseg>
<trkpt lat="50.556946" lon="3.375511"><time>2026-05-02T18:47:43Z</time></trkpt>
<trkpt lat="50.557540" lon="3.375281"><time>2026-05-02T18:57:43Z</time></trkpt>
</trkseg>
</trk>
<trk>
<name>hbtwv14</name>
<cmt>v</cmt>
<desc>Wez-Velvain Chemin n°14 </desc>
<link href="https://chemins.be/wezvelvain/chemin/14"/><trkseg>
<trkpt lat="50.553941" lon="3.375030"><time>2026-05-02T17:47:43Z</time></trkpt>
<trkpt lat="50.554865" lon="3.373420"><time>2026-05-02T17:57:43Z</time></trkpt>
</trkseg></trk>
<trk>
<name>hbtwv14</name>
<cmt>d</cmt>
<desc>Wez-Velvain Chemin n°14 </desc>
<link href="https://chemins.be/wezvelvain/chemin/14"/><trkseg>
<trkpt lat="50.554865" lon="3.373420"><time>2026-05-02T17:57:43Z</time></trkpt>
<trkpt lat="50.556324" lon="3.371228"><time>2026-05-02T18:07:43Z</time></trkpt>
</trkseg>
</trk>
<trk>
<name>hbtwv16</name>
<cmt>v</cmt>
<desc>Wez-Velvain Chemin n°16 </desc>
<link href="https://chemins.be/wezvelvain/chemin/16"/><trkseg>
<trkpt lat="50.547162" lon="3.393286"><time>2026-05-02T17:47:43Z</time></trkpt>
<trkpt lat="50.549245" lon="3.395275"><time>2026-05-02T17:57:43Z</time></trkpt>
<trkpt lat="50.550282" lon="3.396410"><time>2026-05-02T18:07:43Z</time></trkpt>
</trkseg>
</trk>
<trk>
<name>hbtwv17</name>
<cmt>v</cmt>
<desc>Wez-Velvain Chemin n°17 </desc>
<link href="https://chemins.be/wezvelvain/chemin/17"/><trkseg>
<trkpt lat="50.542319" lon="3.386626"><time>2026-05-02T17:47:43Z</time></trkpt>
<trkpt lat="50.542308" lon="3.385029"><time>2026-05-02T17:57:43Z</time></trkpt>
<trkpt lat="50.541855" lon="3.383999"><time>2026-05-02T18:07:43Z</time></trkpt>
<trkpt lat="50.541446" lon="3.382257"><time>2026-05-02T18:17:43Z</time></trkpt>
<trkpt lat="50.541283" lon="3.381982"><time>2026-05-02T18:27:43Z</time></trkpt>
</trkseg>
</trk>
<trk>
<name>hbtwv18</name>
<cmt>v</cmt>
<desc>Wez-Velvain Chemin n°18 </desc>
<link href="https://chemins.be/wezvelvain/chemin/18"/><trkseg>
<trkpt lat="50.536887" lon="3.376622"><time>2026-05-02T17:47:43Z</time></trkpt>
<trkpt lat="50.536854" lon="3.374803"><time>2026-05-02T17:57:43Z</time></trkpt>
<trkpt lat="50.536080" lon="3.373137"><time>2026-05-02T18:07:43Z</time></trkpt>
<trkpt lat="50.535529" lon="3.369226"><time>2026-05-02T18:17:43Z</time></trkpt>
<trkpt lat="50.535696" lon="3.368337"><time>2026-05-02T18:27:43Z</time></trkpt>
<trkpt lat="50.535701" lon="3.367586"><time>2026-05-02T18:37:43Z</time></trkpt>
<trkpt lat="50.534304" lon="3.365656"><time>2026-05-02T18:47:43Z</time></trkpt>
</trkseg>
</trk>
<trk>
<name>hbtwv20</name>
<cmt>q</cmt>
<desc>Wez-Velvain Sentier n°20 Rue du Vicinal</desc>
<link href="https://chemins.be/wezvelvain/sentier/20"/><trkseg>
<trkpt lat="50.549338" lon="3.376704"><time>2026-05-02T17:47:43Z</time></trkpt>
<trkpt lat="50.548526" lon="3.377553"><time>2026-05-02T17:57:43Z</time></trkpt>
<trkpt lat="50.548002" lon="3.378146"><time>2026-05-02T18:07:43Z</time></trkpt>
<trkpt lat="50.547649" lon="3.378785"><time>2026-05-02T18:17:43Z</time></trkpt>
</trkseg></trk>
<trk>
<name>hbtwv20</name>
<cmt>s</cmt>
<desc>Wez-Velvain Sentier n°20 Rue du Vicinal</desc>
<link href="https://chemins.be/wezvelvain/sentier/20"/><trkseg>
<trkpt lat="50.547649" lon="3.378785"><time>2026-05-02T18:17:43Z</time></trkpt>
<trkpt lat="50.547605" lon="3.381583"><time>2026-05-02T18:27:43Z</time></trkpt>
<trkpt lat="50.547911" lon="3.386167"><time>2026-05-02T18:37:43Z</time></trkpt>
</trkseg>
</trk>
<trk>
<name>hbtwv21</name>
<cmt>q</cmt>
<desc>Wez-Velvain Sentier n°21 </desc>
<link href="https://chemins.be/wezvelvain/sentier/21"/><trkseg>
<trkpt lat="50.546134" lon="3.379088"><time>2026-05-02T17:47:43Z</time></trkpt>
<trkpt lat="50.546282" lon="3.379416"><time>2026-05-02T17:57:43Z</time></trkpt>
<trkpt lat="50.546509" lon="3.379877"><time>2026-05-02T18:07:43Z</time></trkpt>
<trkpt lat="50.547295" lon="3.381530"><time>2026-05-02T18:17:43Z</time></trkpt>
<trkpt lat="50.547609" lon="3.381564"><time>2026-05-02T18:27:43Z</time></trkpt>
</trkseg>
</trk>
<trk>
<name>hbtwv22</name>
<cmt>v</cmt>
<desc>Wez-Velvain Sentier n°22 </desc>
<link href="https://chemins.be/wezvelvain/sentier/22"/><trkseg>
<trkpt lat="50.546139" lon="3.378991"><time>2026-05-02T17:47:43Z</time></trkpt>
<trkpt lat="50.546101" lon="3.379796"><time>2026-05-02T17:57:43Z</time></trkpt>
<trkpt lat="50.545905" lon="3.380068"><time>2026-05-02T18:07:43Z</time></trkpt>
<trkpt lat="50.545892" lon="3.381762"><time>2026-05-02T18:17:43Z</time></trkpt>
<trkpt lat="50.546054" lon="3.384877"><time>2026-05-02T18:27:43Z</time></trkpt>
</trkseg>
</trk>
<trk>
<name>hbtwv23</name>
<cmt>d</cmt>
<desc>Wez-Velvain Sentier n°23 </desc>
<link href="https://chemins.be/wezvelvain/sentier/23"/><trkseg>
<trkpt lat="50.544663" lon="3.381039"><time>2026-05-02T17:47:43Z</time></trkpt>
<trkpt lat="50.544973" lon="3.381079"><time>2026-05-02T17:57:43Z</time></trkpt>
<trkpt lat="50.545891" lon="3.380963"><time>2026-05-02T18:07:43Z</time></trkpt>
</trkseg>
</trk>
<trk>
<name>hbtwv24</name>
<cmt>b</cmt>
<desc>Wez-Velvain Sentier n°24 </desc>
<link href="https://chemins.be/wezvelvain/sentier/24"/><trkseg>
<trkpt lat="50.544778" lon="3.382864"><time>2026-05-02T17:47:43Z</time></trkpt>
<trkpt lat="50.543428" lon="3.382800"><time>2026-05-02T17:57:43Z</time></trkpt>
</trkseg></trk>
<trk>
<name>hbtwv24</name>
<cmt>d</cmt>
<desc>Wez-Velvain Sentier n°24 </desc>
<link href="https://chemins.be/wezvelvain/sentier/24"/><trkseg>
<trkpt lat="50.543428" lon="3.382800"><time>2026-05-02T17:57:43Z</time></trkpt>
<trkpt lat="50.542108" lon="3.382304"><time>2026-05-02T18:07:43Z</time></trkpt>
<trkpt lat="50.541282" lon="3.381993"><time>2026-05-02T18:17:43Z</time></trkpt>
</trkseg></trk>
<trk>
<name>hbtwv24</name>
<cmt>v</cmt>
<desc>Wez-Velvain Sentier n°24 </desc>
<link href="https://chemins.be/wezvelvain/sentier/24"/><trkseg>
<trkpt lat="50.541282" lon="3.381993"><time>2026-05-02T18:17:43Z</time></trkpt>
<trkpt lat="50.540811" lon="3.381745"><time>2026-05-02T18:27:43Z</time></trkpt>
<trkpt lat="50.538983" lon="3.380783"><time>2026-05-02T18:37:43Z</time></trkpt>
<trkpt lat="50.538110" lon="3.380491"><time>2026-05-02T18:47:43Z</time></trkpt>
<trkpt lat="50.537338" lon="3.380096"><time>2026-05-02T18:57:43Z</time></trkpt>
</trkseg>
</trk>
<trk>
<name>hbtwv25</name>
<cmt>d</cmt>
<desc>Wez-Velvain Sentier n°25 </desc>
<link href="https://chemins.be/wezvelvain/sentier/25"/><trkseg>
<trkpt lat="50.545367" lon="3.376268"><time>2026-05-02T17:47:43Z</time></trkpt>
<trkpt lat="50.545337" lon="3.375564"><time>2026-05-02T17:57:43Z</time></trkpt>
<trkpt lat="50.545471" lon="3.374629"><time>2026-05-02T18:07:43Z</time></trkpt>
<trkpt lat="50.545294" lon="3.373613"><time>2026-05-02T18:17:43Z</time></trkpt>
<trkpt lat="50.545130" lon="3.372672"><time>2026-05-02T18:27:43Z</time></trkpt>
<trkpt lat="50.545558" lon="3.371874"><time>2026-05-02T18:37:43Z</time></trkpt>
</trkseg>
</trk>
<trk>
<name>hbtwv26</name>
<cmt>d</cmt>
<desc>Wez-Velvain Sentier n°26 </desc>
<link href="https://chemins.be/wezvelvain/sentier/26"/><trkseg>
<trkpt lat="50.543338" lon="3.376843"><time>2026-05-02T17:47:43Z</time></trkpt>
<trkpt lat="50.543835" lon="3.376418"><time>2026-05-02T17:57:43Z</time></trkpt>
<trkpt lat="50.543848" lon="3.376105"><time>2026-05-02T18:07:43Z</time></trkpt>
<trkpt lat="50.544661" lon="3.374766"><time>2026-05-02T18:17:43Z</time></trkpt>
<trkpt lat="50.545313" lon="3.373543"><time>2026-05-02T18:27:43Z</time></trkpt>
</trkseg>
</trk>
<trk>
<name>hbtwv27</name>
<cmt>v</cmt>
<desc>Wez-Velvain Sentier n°27 </desc>
<link href="https://chemins.be/wezvelvain/sentier/27"/><trkseg>
<trkpt lat="50.545665" lon="3.376641"><time>2026-05-02T17:47:43Z</time></trkpt>
<trkpt lat="50.544874" lon="3.376813"><time>2026-05-02T17:57:43Z</time></trkpt>
<trkpt lat="50.544407" lon="3.376714"><time>2026-05-02T18:07:43Z</time></trkpt>
<trkpt lat="50.543837" lon="3.376453"><time>2026-05-02T18:17:43Z</time></trkpt>
</trkseg></trk>
<trk>
<name>hbtwv27</name>
<cmt>d</cmt>
<desc>Wez-Velvain Sentier n°27 </desc>
<link href="https://chemins.be/wezvelvain/sentier/27"/><trkseg>
<trkpt lat="50.543837" lon="3.376453"><time>2026-05-02T18:17:43Z</time></trkpt>
<trkpt lat="50.543851" lon="3.376105"><time>2026-05-02T18:27:43Z</time></trkpt>
<trkpt lat="50.543347" lon="3.376140"><time>2026-05-02T18:37:43Z</time></trkpt>
</trkseg></trk>
<trk>
<name>hbtwv27</name>
<cmt>b</cmt>
<desc>Wez-Velvain Sentier n°27 </desc>
<link href="https://chemins.be/wezvelvain/sentier/27"/><trkseg>
<trkpt lat="50.543347" lon="3.376140"><time>2026-05-02T18:37:43Z</time></trkpt>
<trkpt lat="50.543129" lon="3.376098"><time>2026-05-02T18:47:43Z</time></trkpt>
</trkseg></trk>
<trk>
<name>hbtwv27</name>
<cmt>d</cmt>
<desc>Wez-Velvain Sentier n°27 </desc>
<link href="https://chemins.be/wezvelvain/sentier/27"/><trkseg>
<trkpt lat="50.543129" lon="3.376098"><time>2026-05-02T18:47:43Z</time></trkpt>
<trkpt lat="50.541071" lon="3.375678"><time>2026-05-02T18:57:43Z</time></trkpt>
<trkpt lat="50.539435" lon="3.373670"><time>2026-05-02T19:07:43Z</time></trkpt>
<trkpt lat="50.538682" lon="3.373240"><time>2026-05-02T19:17:43Z</time></trkpt>
<trkpt lat="50.538529" lon="3.372365"><time>2026-05-02T19:27:43Z</time></trkpt>
<trkpt lat="50.537853" lon="3.371284"><time>2026-05-02T19:37:43Z</time></trkpt>
<trkpt lat="50.537611" lon="3.371348"><time>2026-05-02T19:47:43Z</time></trkpt>
<trkpt lat="50.537453" lon="3.370498"><time>2026-05-02T19:57:43Z</time></trkpt>
<trkpt lat="50.537208" lon="3.370335"><time>2026-05-02T20:07:43Z</time></trkpt>
<trkpt lat="50.536902" lon="3.368756"><time>2026-05-02T20:17:43Z</time></trkpt>
<trkpt lat="50.535806" lon="3.367666"><time>2026-05-02T20:27:43Z</time></trkpt>
<trkpt lat="50.535827" lon="3.366498"><time>2026-05-02T20:37:43Z</time></trkpt>
<trkpt lat="50.535642" lon="3.361623"><time>2026-05-02T20:47:43Z</time></trkpt>
</trkseg>
</trk>
<trk>
<name>hbtwv28</name>
<cmt>v</cmt>
<desc>Wez-Velvain Sentier n°28 </desc>
<link href="https://chemins.be/wezvelvain/sentier/28"/><trkseg>
<trkpt lat="50.540841" lon="3.378000"><time>2026-05-02T17:47:43Z</time></trkpt>
<trkpt lat="50.540922" lon="3.376275"><time>2026-05-02T17:57:43Z</time></trkpt>
<trkpt lat="50.540999" lon="3.375751"><time>2026-05-02T18:07:43Z</time></trkpt>
<trkpt lat="50.541190" lon="3.375605"><time>2026-05-02T18:17:43Z</time></trkpt>
</trkseg></trk>
<trk>
<name>hbtwv28</name>
<cmt>d</cmt>
<desc>Wez-Velvain Sentier n°28 </desc>
<link href="https://chemins.be/wezvelvain/sentier/28"/><trkseg>
<trkpt lat="50.541190" lon="3.375605"><time>2026-05-02T18:17:43Z</time></trkpt>
<trkpt lat="50.541255" lon="3.373803"><time>2026-05-02T18:27:43Z</time></trkpt>
<trkpt lat="50.541428" lon="3.372801"><time>2026-05-02T18:37:43Z</time></trkpt>
<trkpt lat="50.541648" lon="3.371526"><time>2026-05-02T18:47:43Z</time></trkpt>
</trkseg></trk>
<trk>
<name>hbtwv28</name>
<cmt>v</cmt>
<desc>Wez-Velvain Sentier n°28 </desc>
<link href="https://chemins.be/wezvelvain/sentier/28"/><trkseg>
<trkpt lat="50.541648" lon="3.371526"><time>2026-05-02T18:47:43Z</time></trkpt>
<trkpt lat="50.542026" lon="3.369333"><time>2026-05-02T18:57:43Z</time></trkpt>
<trkpt lat="50.542771" lon="3.368917"><time>2026-05-02T19:07:43Z</time></trkpt>
<trkpt lat="50.543799" lon="3.369161"><time>2026-05-02T19:17:43Z</time></trkpt>
</trkseg>
</trk>
<trk>
<name>hbtwv29</name>
<cmt>d</cmt>
<desc>Wez-Velvain Sentier n°29 </desc>
<link href="https://chemins.be/wezvelvain/sentier/29"/><trkseg>
<trkpt lat="50.541869" lon="3.387202"><time>2026-05-02T17:47:43Z</time></trkpt>
<trkpt lat="50.541551" lon="3.386970"><time>2026-05-02T17:57:43Z</time></trkpt>
<trkpt lat="50.541677" lon="3.386356"><time>2026-05-02T18:07:43Z</time></trkpt>
<trkpt lat="50.541775" lon="3.384770"><time>2026-05-02T18:17:43Z</time></trkpt>
<trkpt lat="50.541890" lon="3.383991"><time>2026-05-02T18:27:43Z</time></trkpt>
<trkpt lat="50.542127" lon="3.382371"><time>2026-05-02T18:37:43Z</time></trkpt>
<trkpt lat="50.542318" lon="3.381315"><time>2026-05-02T18:47:43Z</time></trkpt>
<trkpt lat="50.542517" lon="3.381362"><time>2026-05-02T18:57:43Z</time></trkpt>
<trkpt lat="50.542932" lon="3.378800"><time>2026-05-02T19:07:43Z</time></trkpt>
</trkseg>
</trk>
<trk>
<name>hbtwv30</name>
<cmt>b</cmt>
<desc>Wez-Velvain Sentier n°30 </desc>
<link href="https://chemins.be/wezvelvain/sentier/30"/><trkseg>
<trkpt lat="50.543530" lon="3.386497"><time>2026-05-02T17:47:43Z</time></trkpt>
<trkpt lat="50.543600" lon="3.385203"><time>2026-05-02T17:57:43Z</time></trkpt>
</trkseg></trk>
<trk>
<name>hbtwv30</name>
<cmt>d</cmt>
<desc>Wez-Velvain Sentier n°30 </desc>
<link href="https://chemins.be/wezvelvain/sentier/30"/><trkseg>
<trkpt lat="50.543600" lon="3.385203"><time>2026-05-02T17:57:43Z</time></trkpt>
<trkpt lat="50.543732" lon="3.382798"><time>2026-05-02T18:07:43Z</time></trkpt>
<trkpt lat="50.543383" lon="3.382832"><time>2026-05-02T18:17:43Z</time></trkpt>
<trkpt lat="50.543781" lon="3.380343"><time>2026-05-02T18:27:43Z</time></trkpt>
</trkseg>
</trk>
<trk>
<name>hbtwv31</name>
<cmt>v</cmt>
<desc>Wez-Velvain Sentier n°31 </desc>
<link href="https://chemins.be/wezvelvain/sentier/31"/><trkseg>
<trkpt lat="50.548204" lon="3.376392"><time>2026-05-02T17:47:43Z</time></trkpt>
<trkpt lat="50.548213" lon="3.376927"><time>2026-05-02T17:57:43Z</time></trkpt>
</trkseg></trk>
<trk>
<name>hbtwv31</name>
<cmt>q</cmt>
<desc>Wez-Velvain Sentier n°31 </desc>
<link href="https://chemins.be/wezvelvain/sentier/31"/><trkseg>
<trkpt lat="50.548213" lon="3.376927"><time>2026-05-02T17:57:43Z</time></trkpt>
<trkpt lat="50.548577" lon="3.377483"><time>2026-05-02T18:07:43Z</time></trkpt>
<trkpt lat="50.549371" lon="3.377725"><time>2026-05-02T18:17:43Z</time></trkpt>
<trkpt lat="50.552198" lon="3.376416"><time>2026-05-02T18:27:43Z</time></trkpt>
<trkpt lat="50.553408" lon="3.376313"><time>2026-05-02T18:37:43Z</time></trkpt>
</trkseg></trk>
<trk>
<name>hbtwv31</name>
<cmt>r</cmt>
<desc>Wez-Velvain Sentier n°31 </desc>
<link href="https://chemins.be/wezvelvain/sentier/31"/><trkseg>
<trkpt lat="50.553408" lon="3.376313"><time>2026-05-02T18:37:43Z</time></trkpt>
<trkpt lat="50.553659" lon="3.376691"><time>2026-05-02T18:47:43Z</time></trkpt>
</trkseg></trk>
<trk>
<name>hbtwv31</name>
<cmt>q</cmt>
<desc>Wez-Velvain Sentier n°31 </desc>
<link href="https://chemins.be/wezvelvain/sentier/31"/><trkseg>
<trkpt lat="50.553659" lon="3.376691"><time>2026-05-02T18:47:43Z</time></trkpt>
<trkpt lat="50.555536" lon="3.375616"><time>2026-05-02T18:57:43Z</time></trkpt>
</trkseg>
</trk>
<trk>
<name>hbtwv34</name>
<cmt>q</cmt>
<desc>Wez-Velvain Sentier n°34 </desc>
<link href="https://chemins.be/wezvelvain/sentier/34"/><trkseg>
<trkpt lat="50.551149" lon="3.386918"><time>2026-05-02T17:47:43Z</time></trkpt>
<trkpt lat="50.552127" lon="3.387004"><time>2026-05-02T17:57:43Z</time></trkpt>
<trkpt lat="50.552225" lon="3.387099"><time>2026-05-02T18:07:43Z</time></trkpt>
<trkpt lat="50.552791" lon="3.386145"><time>2026-05-02T18:17:43Z</time></trkpt>
<trkpt lat="50.553609" lon="3.385622"><time>2026-05-02T18:27:43Z</time></trkpt>
<trkpt lat="50.555332" lon="3.385553"><time>2026-05-02T18:37:43Z</time></trkpt>
</trkseg>
</trk>
<trk>
<name>hbtwv35</name>
<cmt>q</cmt>
<desc>Wez-Velvain Sentier n°35 Rue de la Bize</desc>
<link href="https://chemins.be/wezvelvain/sentier/35"/><trkseg>
<trkpt lat="50.549362" lon="3.377961"><time>2026-05-02T17:47:43Z</time></trkpt>
<trkpt lat="50.549831" lon="3.380901"><time>2026-05-02T17:57:43Z</time></trkpt>
<trkpt lat="50.550289" lon="3.383085"><time>2026-05-02T18:07:43Z</time></trkpt>
<trkpt lat="50.550575" lon="3.385042"><time>2026-05-02T18:17:43Z</time></trkpt>
<trkpt lat="50.551260" lon="3.387025"><time>2026-05-02T18:27:43Z</time></trkpt>
</trkseg></trk>
<trk>
<name>hbtwv35</name>
<cmt>r</cmt>
<desc>Wez-Velvain Sentier n°35 Rue de la Bize</desc>
<link href="https://chemins.be/wezvelvain/sentier/35"/><trkseg>
<trkpt lat="50.551260" lon="3.387025"><time>2026-05-02T18:27:43Z</time></trkpt>
<trkpt lat="50.552285" lon="3.388810"><time>2026-05-02T18:37:43Z</time></trkpt>
</trkseg></trk>
<trk>
<name>hbtwv35</name>
<cmt>q</cmt>
<desc>Wez-Velvain Sentier n°35 Rue de la Bize</desc>
<link href="https://chemins.be/wezvelvain/sentier/35"/><trkseg>
<trkpt lat="50.552285" lon="3.388810"><time>2026-05-02T18:37:43Z</time></trkpt>
<trkpt lat="50.552721" lon="3.390355"><time>2026-05-02T18:47:43Z</time></trkpt>
</trkseg>
</trk>
<trk>
<name>hbtwv36</name>
<cmt>q</cmt>
<desc>Wez-Velvain Sentier n°36 </desc>
<link href="https://chemins.be/wezvelvain/sentier/36"/><trkseg>
<trkpt lat="50.549179" lon="3.383231"><time>2026-05-02T17:47:43Z</time></trkpt>
<trkpt lat="50.550289" lon="3.383068"><time>2026-05-02T17:57:43Z</time></trkpt>
<trkpt lat="50.551682" lon="3.382467"><time>2026-05-02T18:07:43Z</time></trkpt>
<trkpt lat="50.553002" lon="3.381025"><time>2026-05-02T18:17:43Z</time></trkpt>
</trkseg>
</trk>
<trk>
<name>hbtwv37</name>
<cmt>q</cmt>
<desc>Wez-Velvain Sentier n°37 </desc>
<link href="https://chemins.be/wezvelvain/sentier/37"/><trkseg>
<trkpt lat="50.549482" lon="3.380952"><time>2026-05-02T17:47:43Z</time></trkpt>
<trkpt lat="50.549822" lon="3.380884"><time>2026-05-02T17:57:43Z</time></trkpt>
</trkseg>
</trk>
<trk>
<name>hbtwv38</name>
<cmt>q</cmt>
<desc>Wez-Velvain Sentier n°38 </desc>
<link href="https://chemins.be/wezvelvain/sentier/38"/><trkseg>
<trkpt lat="50.550649" lon="3.389495"><time>2026-05-02T17:47:43Z</time></trkpt>
<trkpt lat="50.551470" lon="3.387405"><time>2026-05-02T17:57:43Z</time></trkpt>
</trkseg>
</trk>
<trk>
<name>hbtwv39</name>
<cmt>v</cmt>
<desc>Wez-Velvain Sentier n°39 </desc>
<link href="https://chemins.be/wezvelvain/sentier/39"/><trkseg>
<trkpt lat="50.547519" lon="3.391919"><time>2026-05-02T17:47:43Z</time></trkpt>
<trkpt lat="50.548149" lon="3.392357"><time>2026-05-02T17:57:43Z</time></trkpt>
</trkseg></trk>
<trk>
<name>hbtwv39</name>
<cmt>q</cmt>
<desc>Wez-Velvain Sentier n°39 </desc>
<link href="https://chemins.be/wezvelvain/sentier/39"/><trkseg>
<trkpt lat="50.548149" lon="3.392357"><time>2026-05-02T17:57:43Z</time></trkpt>
<trkpt lat="50.548053" lon="3.392833"><time>2026-05-02T18:07:43Z</time></trkpt>
<trkpt lat="50.548623" lon="3.393370"><time>2026-05-02T18:17:43Z</time></trkpt>
<trkpt lat="50.549261" lon="3.395241"><time>2026-05-02T18:27:43Z</time></trkpt>
</trkseg>
</trk>
<trk>
<name>hbtwv40</name>
<cmt>q</cmt>
<desc>Wez-Velvain Sentier n°40 </desc>
<link href="https://chemins.be/wezvelvain/sentier/40"/><trkseg>
<trkpt lat="50.551749" lon="3.390007"><time>2026-05-02T17:47:43Z</time></trkpt>
<trkpt lat="50.550793" lon="3.391088"><time>2026-05-02T17:57:43Z</time></trkpt>
</trkseg></trk>
<trk>
<name>hbtwv40</name>
<cmt>s</cmt>
<desc>Wez-Velvain Sentier n°40 </desc>
<link href="https://chemins.be/wezvelvain/sentier/40"/><trkseg>
<trkpt lat="50.550793" lon="3.391088"><time>2026-05-02T17:57:43Z</time></trkpt>
<trkpt lat="50.549911" lon="3.392085"><time>2026-05-02T18:07:43Z</time></trkpt>
<trkpt lat="50.548092" lon="3.392361"><time>2026-05-02T18:17:43Z</time></trkpt>
</trkseg>
</trk>
<trk>
<name>hbtwv41</name>
<cmt>q</cmt>
<desc>Wez-Velvain Sentier n°41 </desc>
<link href="https://chemins.be/wezvelvain/sentier/41"/><trkseg>
<trkpt lat="50.551583" lon="3.375610"><time>2026-05-02T17:47:43Z</time></trkpt>
<trkpt lat="50.551710" lon="3.375853"><time>2026-05-02T17:57:43Z</time></trkpt>
<trkpt lat="50.552774" lon="3.375939"><time>2026-05-02T18:07:43Z</time></trkpt>
<trkpt lat="50.554769" lon="3.378113"><time>2026-05-02T18:17:43Z</time></trkpt>
<trkpt lat="50.556359" lon="3.379620"><time>2026-05-02T18:27:43Z</time></trkpt>
<trkpt lat="50.556694" lon="3.379864"><time>2026-05-02T18:37:43Z</time></trkpt>
</trkseg>
</trk>
<trk>
<name>hbtwv43</name>
<cmt>v</cmt>
<desc>Wez-Velvain Sentier n°43 Rue de l'École</desc>
<link href="https://chemins.be/wezvelvain/sentier/43"/><trkseg>
<trkpt lat="50.544900" lon="3.384562"><time>2026-05-02T17:47:43Z</time></trkpt>
<trkpt lat="50.544838" lon="3.384690"><time>2026-05-02T17:57:43Z</time></trkpt>
<trkpt lat="50.544543" lon="3.386954"><time>2026-05-02T18:07:43Z</time></trkpt>
<trkpt lat="50.544508" lon="3.387110"><time>2026-05-02T18:17:43Z</time></trkpt>
<trkpt lat="50.544226" lon="3.387807"><time>2026-05-02T18:27:43Z</time></trkpt>
</trkseg></trk>
<trk>
<name>hbtwv43</name>
<cmt>r</cmt>
<desc>Wez-Velvain Sentier n°43 Rue de l'École</desc>
<link href="https://chemins.be/wezvelvain/sentier/43"/><trkseg>
<trkpt lat="50.544226" lon="3.387807"><time>2026-05-02T18:27:43Z</time></trkpt>
<trkpt lat="50.544484" lon="3.388027"><time>2026-05-02T18:37:43Z</time></trkpt>
</trkseg></trk>
<trk>
<name>hbtwv43</name>
<cmt>v</cmt>
<desc>Wez-Velvain Sentier n°43 Rue de l'École</desc>
<link href="https://chemins.be/wezvelvain/sentier/43"/><trkseg>
<trkpt lat="50.544484" lon="3.388027"><time>2026-05-02T18:37:43Z</time></trkpt>
<trkpt lat="50.543912" lon="3.389759"><time>2026-05-02T18:47:43Z</time></trkpt>
<trkpt lat="50.542897" lon="3.392110"><time>2026-05-02T18:57:43Z</time></trkpt>
</trkseg></trk>
<trk>
<name>hbtwv43</name>
<cmt>d</cmt>
<desc>Wez-Velvain Sentier n°43 Rue de l'École</desc>
<link href="https://chemins.be/wezvelvain/sentier/43"/><trkseg>
<trkpt lat="50.542897" lon="3.392110"><time>2026-05-02T18:57:43Z</time></trkpt>
<trkpt lat="50.543126" lon="3.392514"><time>2026-05-02T19:07:43Z</time></trkpt>
<trkpt lat="50.542990" lon="3.393784"><time>2026-05-02T19:17:43Z</time></trkpt>
<trkpt lat="50.541855" lon="3.395252"><time>2026-05-02T19:27:43Z</time></trkpt>
<trkpt lat="50.539995" lon="3.396694"><time>2026-05-02T19:37:43Z</time></trkpt>
</trkseg>
</trk>
<trk>
<name>hbtwv44</name>
<cmt>v</cmt>
<desc>Wez-Velvain Sentier n°44 </desc>
<link href="https://chemins.be/wezvelvain/sentier/44"/><trkseg>
<trkpt lat="50.543406" lon="3.387247"><time>2026-05-02T17:47:43Z</time></trkpt>
<trkpt lat="50.543235" lon="3.387892"><time>2026-05-02T17:57:43Z</time></trkpt>
<trkpt lat="50.543005" lon="3.388714"><time>2026-05-02T18:07:43Z</time></trkpt>
<trkpt lat="50.541759" lon="3.391426"><time>2026-05-02T18:17:43Z</time></trkpt>
</trkseg></trk>
<trk>
<name>hbtwv44</name>
<cmt>d</cmt>
<desc>Wez-Velvain Sentier n°44 </desc>
<link href="https://chemins.be/wezvelvain/sentier/44"/><trkseg>
<trkpt lat="50.541759" lon="3.391426"><time>2026-05-02T18:17:43Z</time></trkpt>
<trkpt lat="50.539802" lon="3.394677"><time>2026-05-02T18:27:43Z</time></trkpt>
<trkpt lat="50.539965" lon="3.396662"><time>2026-05-02T18:37:43Z</time></trkpt>
</trkseg></trk>
<trk>
<name>hbtwv44</name>
<cmt>v</cmt>
<desc>Wez-Velvain Sentier n°44 </desc>
<link href="https://chemins.be/wezvelvain/sentier/44"/><trkseg>
<trkpt lat="50.539965" lon="3.396662"><time>2026-05-02T18:37:43Z</time></trkpt>
<trkpt lat="50.539734" lon="3.398819"><time>2026-05-02T18:47:43Z</time></trkpt>
</trkseg>
</trk>
<trk>
<name>hbtwv45</name>
<cmt>r</cmt>
<desc>Wez-Velvain Sentier n°45 Ruelle Archange</desc>
<link href="https://chemins.be/wezvelvain/sentier/45"/><trkseg>
<trkpt lat="50.542041" lon="3.387012"><time>2026-05-02T17:47:43Z</time></trkpt>
<trkpt lat="50.542984" lon="3.388694"><time>2026-05-02T17:57:43Z</time></trkpt>
<trkpt lat="50.543503" lon="3.389355"><time>2026-05-02T18:07:43Z</time></trkpt>
<trkpt lat="50.543928" lon="3.389750"><time>2026-05-02T18:17:43Z</time></trkpt>
</trkseg></trk>
<trk>
<name>hbtwv45</name>
<cmt>v</cmt>
<desc>Wez-Velvain Sentier n°45 Ruelle Archange</desc>
<link href="https://chemins.be/wezvelvain/sentier/45"/><trkseg>
<trkpt lat="50.543928" lon="3.389750"><time>2026-05-02T18:17:43Z</time></trkpt>
<trkpt lat="50.544888" lon="3.390162"><time>2026-05-02T18:27:43Z</time></trkpt>
</trkseg>
</trk>
<trk>
<name>hbtwv46</name>
<cmt>d</cmt>
<desc>Wez-Velvain Sentier n°46 </desc>
<link href="https://chemins.be/wezvelvain/sentier/46"/><trkseg>
<trkpt lat="50.542315" lon="3.385143"><time>2026-05-02T17:47:43Z</time></trkpt>
<trkpt lat="50.543614" lon="3.385199"><time>2026-05-02T17:57:43Z</time></trkpt>
</trkseg>
</trk>
<trk>
<name>hbtwv47</name>
<cmt>v</cmt>
<desc>Wez-Velvain Sentier n°47 </desc>
<link href="https://chemins.be/wezvelvain/sentier/47"/><trkseg>
<trkpt lat="50.542195" lon="3.386576"><time>2026-05-02T17:47:43Z</time></trkpt>
<trkpt lat="50.541708" lon="3.386343"><time>2026-05-02T17:57:43Z</time></trkpt>
</trkseg></trk>
<trk>
<name>hbtwv47</name>
<cmt>d</cmt>
<desc>Wez-Velvain Sentier n°47 </desc>
<link href="https://chemins.be/wezvelvain/sentier/47"/><trkseg>
<trkpt lat="50.541708" lon="3.386343"><time>2026-05-02T17:57:43Z</time></trkpt>
<trkpt lat="50.539313" lon="3.384875"><time>2026-05-02T18:07:43Z</time></trkpt>
<trkpt lat="50.538228" lon="3.384780"><time>2026-05-02T18:17:43Z</time></trkpt>
</trkseg>
</trk>
<trk>
<name>hbtwv48</name>
<cmt>v</cmt>
<desc>Wez-Velvain Sentier n°48 Rue du Monument</desc>
<link href="https://chemins.be/wezvelvain/sentier/48"/><trkseg>
<trkpt lat="50.546573" lon="3.389103"><time>2026-05-02T17:47:43Z</time></trkpt>
<trkpt lat="50.546636" lon="3.388515"><time>2026-05-02T17:57:43Z</time></trkpt>
<trkpt lat="50.546670" lon="3.388166"><time>2026-05-02T18:07:43Z</time></trkpt>
</trkseg></trk>
<trk>
<name>hbtwv48</name>
<cmt>r</cmt>
<desc>Wez-Velvain Sentier n°48 Rue du Monument</desc>
<link href="https://chemins.be/wezvelvain/sentier/48"/><trkseg>
<trkpt lat="50.546670" lon="3.388166"><time>2026-05-02T18:07:43Z</time></trkpt>
<trkpt lat="50.545981" lon="3.387839"><time>2026-05-02T18:17:43Z</time></trkpt>
</trkseg>
</trk>
<trk>
<name>hbtwv49</name>
<cmt>q</cmt>
<desc>Wez-Velvain Sentier n°49 </desc>
<link href="https://chemins.be/wezvelvain/sentier/49"/><trkseg>
<trkpt lat="50.546088" lon="3.385810"><time>2026-05-02T17:47:43Z</time></trkpt>
<trkpt lat="50.547944" lon="3.386258"><time>2026-05-02T17:57:43Z</time></trkpt>
</trkseg>
</trk>
<trk>
<name>hbtwv49bis</name>
<cmt>q</cmt>
<desc>Wez-Velvain Sentier n°49bis </desc>
<link href="https://chemins.be/wezvelvain/sentier/49bis"/><trkseg>
<trkpt lat="50.546562" lon="3.385909"><time>2026-05-02T17:47:43Z</time></trkpt>
<trkpt lat="50.546044" lon="3.384929"><time>2026-05-02T17:57:43Z</time></trkpt>
</trkseg>
</trk>
<trk>
<name>hbtwv50</name>
<cmt>d</cmt>
<desc>Wez-Velvain Sentier n°50 </desc>
<link href="https://chemins.be/wezvelvain/sentier/50"/><trkseg>
<trkpt lat="50.538044" lon="3.388108"><time>2026-05-02T17:47:43Z</time></trkpt>
<trkpt lat="50.538255" lon="3.386385"><time>2026-05-02T17:57:43Z</time></trkpt>
<trkpt lat="50.538214" lon="3.384811"><time>2026-05-02T18:07:43Z</time></trkpt>
<trkpt lat="50.538124" lon="3.381304"><time>2026-05-02T18:17:43Z</time></trkpt>
<trkpt lat="50.538397" lon="3.380600"><time>2026-05-02T18:27:43Z</time></trkpt>
</trkseg>
</trk>
<trk>
<name>hbtwv51</name>
<cmt>d</cmt>
<desc>Wez-Velvain Sentier n°51 </desc>
<link href="https://chemins.be/wezvelvain/sentier/51"/><trkseg>
<trkpt lat="50.539249" lon="3.373481"><time>2026-05-02T17:47:43Z</time></trkpt>
<trkpt lat="50.538747" lon="3.370425"><time>2026-05-02T17:57:43Z</time></trkpt>
<trkpt lat="50.538727" lon="3.368163"><time>2026-05-02T18:07:43Z</time></trkpt>
<trkpt lat="50.538693" lon="3.364503"><time>2026-05-02T18:17:43Z</time></trkpt>
<trkpt lat="50.536913" lon="3.361615"><time>2026-05-02T18:27:43Z</time></trkpt>
</trkseg>
</trk>
<trk>
<name>hbtwv52</name>
<cmt>v</cmt>
<desc>Wez-Velvain Sentier n°52 </desc>
<link href="https://chemins.be/wezvelvain/sentier/52"/><trkseg>
<trkpt lat="50.540235" lon="3.366893"><time>2026-05-02T17:47:43Z</time></trkpt>
<trkpt lat="50.540028" lon="3.367666"><time>2026-05-02T17:57:43Z</time></trkpt>
<trkpt lat="50.539853" lon="3.367820"><time>2026-05-02T18:07:43Z</time></trkpt>
<trkpt lat="50.539689" lon="3.367870"><time>2026-05-02T18:17:43Z</time></trkpt>
<trkpt lat="50.538751" lon="3.368164"><time>2026-05-02T18:27:43Z</time></trkpt>
</trkseg>
</trk>
<trk>
<name>hbtwv54</name>
<cmt>v</cmt>
<desc>Wez-Velvain Sentier n°54 </desc>
<link href="https://chemins.be/wezvelvain/sentier/54"/><trkseg>
<trkpt lat="50.527431" lon="3.388279"><time>2026-05-02T17:47:43Z</time></trkpt>
<trkpt lat="50.527486" lon="3.386852"><time>2026-05-02T17:57:43Z</time></trkpt>
<trkpt lat="50.527445" lon="3.384894"><time>2026-05-02T18:07:43Z</time></trkpt>
<trkpt lat="50.527384" lon="3.383843"><time>2026-05-02T18:17:43Z</time></trkpt>
<trkpt lat="50.527404" lon="3.382620"><time>2026-05-02T18:27:43Z</time></trkpt>
</trkseg></trk>
<trk>
<name>hbtwv54</name>
<cmt>q</cmt>
<desc>Wez-Velvain Sentier n°54 </desc>
<link href="https://chemins.be/wezvelvain/sentier/54"/><trkseg>
<trkpt lat="50.527404" lon="3.382620"><time>2026-05-02T18:27:43Z</time></trkpt>
<trkpt lat="50.525432" lon="3.382691"><time>2026-05-02T18:37:43Z</time></trkpt>
<trkpt lat="50.525420" lon="3.382476"><time>2026-05-02T18:47:43Z</time></trkpt>
<trkpt lat="50.525041" lon="3.382700"><time>2026-05-02T18:57:43Z</time></trkpt>
</trkseg>
</trk>
<trk>
<name>hbtwv55</name>
<cmt>q</cmt>
<desc>Wez-Velvain Sentier n°55 </desc>
<link href="https://chemins.be/wezvelvain/sentier/55"/><trkseg>
<trkpt lat="50.525916" lon="3.376538"><time>2026-05-02T17:47:43Z</time></trkpt>
<trkpt lat="50.525883" lon="3.381870"><time>2026-05-02T17:57:43Z</time></trkpt>
<trkpt lat="50.525459" lon="3.381928"><time>2026-05-02T18:07:43Z</time></trkpt>
<trkpt lat="50.525417" lon="3.382481"><time>2026-05-02T18:17:43Z</time></trkpt>
</trkseg>
</trk>
<trk>
<name>hbtwv56</name>
<cmt>q</cmt>
<desc>Wez-Velvain Sentier n°56 </desc>
<link href="https://chemins.be/wezvelvain/sentier/56"/><trkseg>
<trkpt lat="50.527421" lon="3.382614"><time>2026-05-02T17:47:43Z</time></trkpt>
<trkpt lat="50.528270" lon="3.382507"><time>2026-05-02T17:57:43Z</time></trkpt>
</trkseg>
</trk>
<trk>
<name>hbtwv57</name>
<cmt>q</cmt>
<desc>Wez-Velvain Sentier n°57 </desc>
<link href="https://chemins.be/wezvelvain/sentier/57"/><trkseg>
<trkpt lat="50.547456" lon="3.376882"><time>2026-05-02T17:47:43Z</time></trkpt>
<trkpt lat="50.547723" lon="3.377015"><time>2026-05-02T17:57:43Z</time></trkpt>
<trkpt lat="50.548531" lon="3.377423"><time>2026-05-02T18:07:43Z</time></trkpt>
</trkseg>
</trk>
<trk>
<name>hbtwv58</name>
<cmt>r</cmt>
<desc>Wez-Velvain Sentier n°58 </desc>
<link href="https://chemins.be/wezvelvain/sentier/58"/><trkseg>
<trkpt lat="50.546819" lon="3.394102"><time>2026-05-02T17:47:43Z</time></trkpt>
<trkpt lat="50.545924" lon="3.393441"><time>2026-05-02T17:57:43Z</time></trkpt>
</trkseg></trk>
<trk>
<name>hbtwv58</name>
<cmt>v</cmt>
<desc>Wez-Velvain Sentier n°58 </desc>
<link href="https://chemins.be/wezvelvain/sentier/58"/><trkseg>
<trkpt lat="50.545924" lon="3.393441"><time>2026-05-02T17:57:43Z</time></trkpt>
<trkpt lat="50.545821" lon="3.393175"><time>2026-05-02T18:07:43Z</time></trkpt>
<trkpt lat="50.545013" lon="3.392471"><time>2026-05-02T18:17:43Z</time></trkpt>
<trkpt lat="50.544408" lon="3.391913"><time>2026-05-02T18:27:43Z</time></trkpt>
</trkseg>
</trk>
<trk>
<name>hbtwv59</name>
<cmt>v</cmt>
<desc>Wez-Velvain Sentier n°59 </desc>
<link href="https://chemins.be/wezvelvain/sentier/59"/><trkseg>
<trkpt lat="50.545226" lon="3.388711"><time>2026-05-02T17:47:43Z</time></trkpt>
<trkpt lat="50.544394" lon="3.391881"><time>2026-05-02T17:57:43Z</time></trkpt>
<trkpt lat="50.544053" lon="3.392926"><time>2026-05-02T18:07:43Z</time></trkpt>
<trkpt lat="50.543383" lon="3.392505"><time>2026-05-02T18:17:43Z</time></trkpt>
<trkpt lat="50.543148" lon="3.392548"><time>2026-05-02T18:27:43Z</time></trkpt>
</trkseg>
</trk>
<trk>
<name>hbtwv60</name>
<cmt>v</cmt>
<desc>Wez-Velvain Sentier n°60 </desc>
<link href="https://chemins.be/wezvelvain/sentier/60"/><trkseg>
<trkpt lat="50.537355" lon="3.379642"><time>2026-05-02T17:47:43Z</time></trkpt>
<trkpt lat="50.536195" lon="3.379232"><time>2026-05-02T17:57:43Z</time></trkpt>
<trkpt lat="50.535798" lon="3.379178"><time>2026-05-02T18:07:43Z</time></trkpt>
</trkseg></trk>
<trk>
<name>hbtwv60</name>
<cmt>d</cmt>
<desc>Wez-Velvain Sentier n°60 </desc>
<link href="https://chemins.be/wezvelvain/sentier/60"/><trkseg>
<trkpt lat="50.535798" lon="3.379178"><time>2026-05-02T18:07:43Z</time></trkpt>
<trkpt lat="50.534357" lon="3.378955"><time>2026-05-02T18:17:43Z</time></trkpt>
</trkseg></trk>
<trk>
<name>hbtwv60</name>
<cmt>b</cmt>
<desc>Wez-Velvain Sentier n°60 </desc>
<link href="https://chemins.be/wezvelvain/sentier/60"/><trkseg>
<trkpt lat="50.534357" lon="3.378955"><time>2026-05-02T18:17:43Z</time></trkpt>
<trkpt lat="50.530261" lon="3.375836"><time>2026-05-02T18:27:43Z</time></trkpt>
<trkpt lat="50.526865" lon="3.376866"><time>2026-05-02T18:37:43Z</time></trkpt>
<trkpt lat="50.525951" lon="3.376437"><time>2026-05-02T18:47:43Z</time></trkpt>
</trkseg>
</trk>
<trk>
<name>hbtwv8</name>
<cmt>s</cmt>
<desc>Wez-Velvain Chemin n°8 </desc>
<link href="https://chemins.be/wezvelvain/chemin/8"/><trkseg>
<trkpt lat="50.547353" lon="3.377101"><time>2026-05-02T17:47:43Z</time></trkpt>
<trkpt lat="50.547541" lon="3.378796"><time>2026-05-02T17:57:43Z</time></trkpt>
</trkseg>
</trk>
<trk>
<name>hbtwvi1</name>
<cmt>v</cmt>
<desc>Wez-Velvain Chemin n°i1 </desc>
<link href="https://chemins.be/wezvelvain/chemin/i1"/><trkseg>
<trkpt lat="50.543628" lon="3.370855"><time>2026-05-02T17:47:43Z</time></trkpt>
<trkpt lat="50.543020" lon="3.370705"><time>2026-05-02T17:57:43Z</time></trkpt>
</trkseg>
</trk>
<trk>
<name>hbtwvi2</name>
<cmt>v</cmt>
<desc>Wez-Velvain Chemin n°i2 </desc>
<link href="https://chemins.be/wezvelvain/chemin/i2"/><trkseg>
<trkpt lat="50.543368" lon="3.376203"><time>2026-05-02T17:47:43Z</time></trkpt>
<trkpt lat="50.543628" lon="3.376241"><time>2026-05-02T17:57:43Z</time></trkpt>
<trkpt lat="50.543834" lon="3.376441"><time>2026-05-02T18:07:43Z</time></trkpt>
</trkseg>
</trk>
<trk>
<name>hbtwvi3</name>
<cmt>v</cmt>
<desc>Wez-Velvain Sentier n°i3 </desc>
<link href="https://chemins.be/wezvelvain/sentier/i3"/><trkseg>
<trkpt lat="50.542910" lon="3.392130"><time>2026-05-02T17:47:43Z</time></trkpt>
<trkpt lat="50.542575" lon="3.392233"><time>2026-05-02T17:57:43Z</time></trkpt>
<trkpt lat="50.541743" lon="3.391469"><time>2026-05-02T18:07:43Z</time></trkpt>
</trkseg>
</trk>
<trk>
<name>hbtwvi4</name>
<cmt>v</cmt>
<desc>Wez-Velvain Sentier n°i4 </desc>
<link href="https://chemins.be/wezvelvain/sentier/i4"/><trkseg>
<trkpt lat="50.536902" lon="3.361626"><time>2026-05-02T17:47:43Z</time></trkpt>
<trkpt lat="50.536979" lon="3.363738"><time>2026-05-02T17:57:43Z</time></trkpt>
<trkpt lat="50.538659" lon="3.363781"><time>2026-05-02T18:07:43Z</time></trkpt>
<trkpt lat="50.538691" lon="3.364450"><time>2026-05-02T18:17:43Z</time></trkpt>
</trkseg>
</trk>
<trk>
<name>hbtwvi5</name>
<cmt>v</cmt>
<desc>Wez-Velvain Sentier n°i5 </desc>
<link href="https://chemins.be/wezvelvain/sentier/i5"/><trkseg>
<trkpt lat="50.543325" lon="3.376522"><time>2026-05-02T17:47:43Z</time></trkpt>
<trkpt lat="50.543135" lon="3.376494"><time>2026-05-02T17:57:43Z</time></trkpt>
<trkpt lat="50.543127" lon="3.376096"><time>2026-05-02T18:07:43Z</time></trkpt>
</trkseg>
</trk>
<trk>
<name>hbtwvi6</name>
<cmt>v</cmt>
<desc>Wez-Velvain Chemin n°i6 </desc>
<link href="https://chemins.be/wezvelvain/chemin/i6"/><trkseg>
<trkpt lat="50.542207" lon="3.369461"><time>2026-05-02T17:47:43Z</time></trkpt>
<trkpt lat="50.541995" lon="3.369511"><time>2026-05-02T17:57:43Z</time></trkpt>
<trkpt lat="50.540780" lon="3.368936"><time>2026-05-02T18:07:43Z</time></trkpt>
</trkseg>
</trk>
</gpx>